EW5506 Weather Reports


time (UTC)temp
C
wind
direction
speed
KPH
gust
KPH
rain 1hr
cm
rain 24hr
cm
rain mn
cm
humidity
%
barometer
mb
20260506180104 10 219 6.4 11.3 0.05 0.51 0.51 92 1010.1
20260506174536 10 234 4.8 12.9 0.05 0.69 0.48 92 1009.9
20260506173105 10 219 6.4 16.1 0.08 0.69 0.48 92 1009.8
20260506171556 10 223 9.7 14.5 0.08 0.66 0.46 91 1009.6
20260506170113 10 258 8.0 17.7 0.10 0.66 0.46 91 1009.5
20260506164555 11 216 4.8 12.9 0.10 0.69 0.43 91 1009.4
20260506163116 11 225 4.8 11.3 0.08 0.64 0.41 91 1009.3
20260506161552 11 223 4.8 11.3 0.05 0.61 0.38 91 1009.3
20260506160122 11 223 6.4 12.9 0.05 0.61 0.36 90 1009.2
20260506154554 11 219 6.4 14.5 0.03 0.58 0.33 90 1009.1
20260506153123 11 238 8.0 14.5 0.03 0.56 0.33 89 1009.1
20260506151509 11 235 9.7 17.7 0.03 0.56 0.33 89 1009.0
20260506150052 11 236 8.0 16.1 0.03 0.56 0.33 90 1008.9
20260506144520 11 226 9.7 16.1 0.03 0.56 0.33 90 1008.9
20260506143056 11 235 6.4 17.7 0.03 0.53 0.30 90 1008.8
20260506141538 11 200 6.4 14.5 0.03 0.53 0.30 89 1008.9
20260506140111 11 236 12.9 22.5 0.03 0.53 0.30 88 1008.9
20260506134542 11 217 8.0 19.3 0.03 0.89 0.30 89 1008.9
20260506133115 11 221 12.9 19.3 0.00 0.89 0.28 89 1008.8
20260506131503 11 248 17.7 29.0 0.03 0.89 0.28 89 1008.7
20260506130018 11 187 17.7 25.7 0.05 0.89 0.28 90 1008.6
20260506124526 11 240 14.5 29.0 0.05 0.89 0.28 90 1008.5
20260506123055 11 244 14.5 29.0 0.10 0.89 0.28 91 1008.3
20260506121527 11 232 11.3 27.4 0.13 0.86 0.25 91 1008.2
20260506114552 12 258 14.5 30.6 0.18 0.81 0.23 92 1008.1
20260506113121 12 240 12.9 22.5 0.18 0.79 0.18 91 1008.0
20260506111503 12 237 4.8 19.3 0.13 0.71 0.15 91 1007.9
20260506110012 12 271 4.8 14.5 0.08 0.69 0.08 91 1007.9
20260506104513 12 237 6.4 12.9 0.05 0.64 0.05 89 1007.8
20260506103056 12 197 4.8 12.9 0.00 0.61 0.00 88 1007.6
20260506101534 13 220 9.7 14.5 0.00 0.61 0.00 86 1007.5
20260506100114 13 242 11.3 16.1 0.00 0.61 0.00 86 1007.3
20260506094554 13 237 8.0 19.3 0.00 0.61 0.00 85 1007.3
20260506093036 12 232 8.0 16.1 0.00 0.61 0.00 86 1007.2
20260506091520 12 222 6.4 14.5 0.00 0.61 0.00 85 1007.1
20260506090051 13 234 9.7 16.1 0.00 0.61 0.00 84 1007.1
20260506084529 13 236 11.3 16.1 0.00 0.61 0.00 83 1007.0
20260506083106 13 240 11.3 16.1 0.00 0.61 0.00 83 1006.8
20260506081543 13 219 9.7 17.7 0.00 0.61 0.00 84 1006.7
20260506080109 13 213 6.4 19.3 0.00 0.61 0.00 87 1006.6
20260506073105 12 237 6.4 16.1 0.00 0.61 0.00 89 1006.9
20260506071534 12 193 8.0 12.9 0.00 0.61 0.00 91 1006.8
20260506070104 12 223 6.4 16.1 0.00 0.61 0.00 92 1006.8
20260506061529 10 240 4.8 8.0 0.00 0.61 0.00 94 1007.0
20260506044515 8 180 1.6 6.4 0.00 0.69 0.00 94 1006.9
20260506043005 9 176 3.2 8.0 0.00 0.69 0.00 94 1007.3
20260506041554 9 171 3.2 9.7 0.00 0.69 0.00 94 1007.3
20260506040001 8 200 0.0 3.2 0.00 0.69 0.00 94 1007.2
20260506034551 8 200 0.0 6.4 0.00 0.69 0.00 94 1007.3
20260506033117 8 200 1.6 6.4 0.00 0.69 0.00 94 1007.4
20260506031558 8 223 0.0 4.8 0.00 0.69 0.00 94 1007.5
20260506030130 8 223 0.0 3.2 0.00 0.69 0.00 94 1007.5
20260506024552 8 223 0.0 3.2 0.00 0.69 0.00 94 1007.6
20260506023119 9 223 0.0 6.4 0.00 0.69 0.00 94 1007.7
20260506021559 9 224 1.6 3.2 0.00 0.69 0.00 94 1007.8
20260506020116 9 224 0.0 4.8 0.00 0.69 0.00 94 1007.8
20260506014601 9 224 0.0 3.2 0.00 0.69 0.00 94 1008.0
20260506013115 9 224 0.0 3.2 0.00 0.69 0.00 94 1008.2
20260506011542 9 224 1.6 4.8 0.00 0.69 0.00 94 1008.4
20260506010113 9 224 0.0 3.2 0.00 0.69 0.00 94 1008.5
20260506004556 9 224 1.6 6.4 0.00 0.69 0.00 94 1008.4
20260506003002 10 221 3.2 4.8 0.00 0.69 0.00 94 1008.4
20260506001553 10 221 0.0 4.8 0.00 0.69 0.00 93 1008.6
20260506000112 10 221 1.6 3.2 0.00 0.69 0.00 94 1008.8
20260505234544 10 221 0.0 3.2 0.00 0.69 0.00 93 1008.9
20260505233137 10 221 4.8 8.0 0.00 0.69 0.00 93 1009.0
20260505231547 10 215 1.6 4.8 0.00 0.69 0.00 93 1009.1
20260505230116 10 214 4.8 6.4 0.00 0.69 0.00 93 1009.3
20260505224556 10 184 1.6 3.2 0.00 0.69 0.00 93 1009.2
20260505223114 10 184 3.2 4.8 0.00 0.69 0.00 93 1009.2
20260505221540 10 184 0.0 0.0 0.00 0.69 0.00 93 1009.2
20260505220106 10 184 0.0 3.2 0.00 0.69 0.00 93 1009.2
20260505214537 10 184 1.6 3.2 0.00 0.69 0.69 93 1009.4
20260505213123 10 183 1.6 3.2 0.00 0.69 0.69 93 1009.4
20260505211545 11 183 1.6 4.8 0.00 0.69 0.69 93 1009.3
20260505210117 11 183 0.0 3.2 0.00 0.69 0.69 92 1009.2
20260505204554 11 183 0.0 1.6 0.00 0.69 0.69 92 1009.2
20260505203004 11 183 1.6 3.2 0.00 0.69 0.69 92 1009.3
20260505201601 11 183 0.0 6.4 0.00 0.69 0.69 92 1009.3
20260505201500 11 183 0.0 6.4 0.00 0.69 0.69 92 1009.3
20260505200016 12 213 4.8 6.4 0.00 0.69 0.69 92 1009.0
20260505194511 12 225 0.0 4.8 0.00 0.69 0.69 91 1008.8
20260505193102 12 225 1.6 9.7 0.00 0.69 0.69 91 1008.8
20260505191515 12 225 3.2 9.7 0.00 0.69 0.69 91 1008.6
20260505190048 13 208 3.2 8.0 0.00 0.69 0.69 92 1008.6
20260505184527 13 217 3.2 4.8 0.00 0.69 0.69 91 1008.4
20260505183057 13 217 0.0 4.8 0.00 0.69 0.69 90 1008.4
20260505181535 13 216 3.2 8.0 0.05 0.69 0.69 90 1008.4